Time,TemperatureF,DewpointF,PressureIn,WindDirection,WindDirectionDegrees,WindSpeedMPH,WindSpeedGustMPH,Humidity,HourlyPrecipIn,Conditions,Clouds,dailyrainin,SoftwareType,DateUTC
2013-07-14 09:01:00,67.0,67.0,30.22,South,191,0.0,0.0,100,0.00,,,-99.99,,2013-07-14 13:01:00,
2013-07-14 09:11:00,67.0,67.0,30.22,South,191,0.0,0.0,100,0.00,,,-99.99,,2013-07-14 13:11:00,
2013-07-14 09:22:00,67.0,67.0,30.22,South,191,0.0,0.0,100,0.00,,,-99.99,,2013-07-14 13:22:00,
2013-07-14 09:32:00,67.0,67.0,30.22,South,191,0.0,0.0,100,0.00,,,-99.99,,2013-07-14 13:32:00,
2013-07-14 09:42:00,67.0,67.0,30.22,South,191,0.0,0.0,100,0.00,,,-99.99,,2013-07-14 13:42:00,
2013-07-14 09:53:00,67.0,67.0,30.22,South,191,0.0,0.0,100,0.00,,,-99.99,,2013-07-14 13:53:00,
2013-07-14 10:02:00,67.0,67.0,30.22,South,191,0.0,0.0,100,0.02,,,-99.99,,2013-07-14 14:02:00,
2013-07-14 10:11:00,67.0,67.0,30.22,South,191,0.0,0.0,100,0.02,,,-99.99,,2013-07-14 14:11:00,
2013-07-14 10:33:00,67.0,67.0,30.24,ESE,107,0.0,1.0,100,0.02,,,-99.99,,2013-07-14 14:33:00,
2013-07-14 10:43:00,67.0,67.0,30.24,ESE,107,0.0,1.0,100,0.02,,,-99.99,,2013-07-14 14:43:00,
2013-07-14 10:53:00,67.0,67.0,30.24,ESE,107,0.0,1.0,100,0.02,,,-99.99,,2013-07-14 14:53:00,
2013-07-14 11:01:00,67.0,67.0,30.24,ESE,107,0.0,0.0,100,0.00,,,-99.99,,2013-07-14 15:01:00,
2013-07-14 11:12:00,67.0,67.0,30.24,ESE,107,0.0,0.0,100,0.00,,,-99.99,,2013-07-14 15:12:00,
2013-07-14 11:22:00,67.0,67.0,30.24,ESE,107,0.0,0.0,100,0.00,,,-99.99,,2013-07-14 15:22:00,
2013-07-14 11:32:00,67.0,67.0,30.26,East,95,0.0,3.0,100,0.00,,,-99.99,,2013-07-14 15:32:00,
2013-07-14 11:42:00,67.0,67.0,30.26,East,95,0.0,3.0,100,0.00,,,-99.99,,2013-07-14 15:42:00,
2013-07-14 11:53:00,67.0,67.0,30.26,East,95,0.0,3.0,100,0.00,,,-99.99,,2013-07-14 15:53:00,
2013-07-14 12:01:00,67.0,67.0,30.26,East,93,0.0,3.0,100,0.00,,,-99.99,,2013-07-14 16:01:00,
2013-07-14 12:11:00,67.0,67.0,30.26,East,93,0.0,3.0,100,0.00,,,-99.99,,2013-07-14 16:11:00,
2013-07-14 12:22:00,67.0,67.0,30.26,East,93,0.0,3.0,100,0.00,,,-99.99,,2013-07-14 16:22:00,
2013-07-14 12:32:00,67.0,67.0,30.26,East,88,0.0,0.0,100,0.00,,,-99.99,,2013-07-14 16:32:00,
2013-07-14 12:43:00,67.0,67.0,30.26,East,88,0.0,0.0,100,0.00,,,-99.99,,2013-07-14 16:43:00,
2013-07-14 12:53:00,67.0,67.0,30.26,East,88,0.0,0.0,100,0.00,,,-99.99,,2013-07-14 16:53:00,
2013-07-14 13:02:00,68.0,68.0,30.26,East,88,0.0,0.0,100,0.05,,,-99.99,,2013-07-14 17:02:00,
2013-07-14 13:11:00,68.0,68.0,30.26,East,88,0.0,0.0,100,0.05,,,-99.99,,2013-07-14 17:11:00,
2013-07-14 13:22:00,68.0,68.0,30.26,East,88,0.0,0.0,100,0.05,,,-99.99,,2013-07-14 17:22:00,
2013-07-14 13:32:00,68.0,68.0,30.26,East,88,0.0,0.0,100,0.09,,,-99.99,,2013-07-14 17:32:00,
2013-07-14 13:43:00,68.0,68.0,30.26,East,88,0.0,0.0,100,0.09,,,-99.99,,2013-07-14 17:43:00,
2013-07-14 13:53:00,68.0,68.0,30.26,East,88,0.0,0.0,100,0.09,,,-99.99,,2013-07-14 17:53:00,
2013-07-14 14:01:00,68.0,68.0,30.26,East,88,0.0,0.0,100,0.09,,,-99.99,,2013-07-14 18:01:00,
2013-07-14 14:11:00,68.0,68.0,30.26,East,88,0.0,0.0,100,0.09,,,-99.99,,2013-07-14 18:11:00,
2013-07-14 14:32:00,67.0,67.0,30.27,East,86,0.0,3.0,100,0.05,,,-99.99,,2013-07-14 18:32:00,
2013-07-14 14:42:00,67.0,67.0,30.27,East,86,0.0,3.0,100,0.05,,,-99.99,,2013-07-14 18:42:00,
2013-07-14 14:52:00,67.0,67.0,30.27,East,86,0.0,3.0,100,0.05,,,-99.99,,2013-07-14 18:52:00,
2013-07-14 15:02:00,67.0,67.0,30.27,ENE,72,0.0,7.0,100,0.00,,,-99.99,,2013-07-14 19:02:00,
2013-07-14 15:12:00,67.0,67.0,30.27,ENE,72,0.0,7.0,100,0.00,,,-99.99,,2013-07-14 19:12:00,
2013-07-14 15:22:00,67.0,67.0,30.27,ENE,72,0.0,7.0,100,0.00,,,-99.99,,2013-07-14 19:22:00,
2013-07-14 15:32:00,67.0,67.0,30.27,ENE,75,0.0,2.0,100,0.00,,,-99.99,,2013-07-14 19:32:00,
2013-07-14 15:43:00,67.0,67.0,30.27,ENE,75,0.0,2.0,100,0.00,,,-99.99,,2013-07-14 19:43:00,
2013-07-14 15:53:00,67.0,67.0,30.27,ENE,75,0.0,2.0,100,0.00,,,-99.99,,2013-07-14 19:53:00,
2013-07-14 16:02:00,67.0,67.0,30.26,ENE,75,0.0,3.0,100,0.00,,,-99.99,,2013-07-14 20:02:00,
2013-07-14 16:11:00,67.0,67.0,30.26,ENE,75,0.0,3.0,100,0.00,,,-99.99,,2013-07-14 20:11:00,
2013-07-14 16:22:00,67.0,67.0,30.26,ENE,75,0.0,3.0,100,0.00,,,-99.99,,2013-07-14 20:22:00,
2013-07-14 16:32:00,66.0,66.0,30.26,SSE,154,0.0,5.0,100,0.01,,,-99.99,,2013-07-14 20:32:00,
2013-07-14 16:43:00,66.0,66.0,30.26,SSE,154,0.0,5.0,100,0.01,,,-99.99,,2013-07-14 20:43:00,
2013-07-14 16:53:00,66.0,66.0,30.26,SSE,154,0.0,5.0,100,0.01,,,-99.99,,2013-07-14 20:53:00,
2013-07-14 17:02:00,66.0,66.0,30.27,SSE,154,0.0,0.0,100,0.02,,,-99.99,,2013-07-14 21:02:00,
2013-07-14 17:11:00,66.0,66.0,30.27,SSE,154,0.0,0.0,100,0.02,,,-99.99,,2013-07-14 21:11:00,
2013-07-14 17:22:00,66.0,66.0,30.27,SSE,154,0.0,0.0,100,0.02,,,-99.99,,2013-07-14 21:22:00,
2013-07-14 17:32:00,66.0,66.0,30.26,SSE,154,0.0,0.0,100,0.01,,,-99.99,,2013-07-14 21:32:00,
2013-07-14 17:43:00,66.0,66.0,30.26,SSE,154,0.0,0.0,100,0.01,,,-99.99,,2013-07-14 21:43:00,
2013-07-14 17:53:00,66.0,66.0,30.26,SSE,154,0.0,0.0,100,0.01,,,-99.99,,2013-07-14 21:53:00,
2013-07-14 18:01:00,66.0,66.0,30.27,SSE,154,0.0,0.0,100,0.00,,,-99.99,,2013-07-14 22:01:00,
2013-07-14 18:11:00,66.0,66.0,30.27,SSE,154,0.0,0.0,100,0.00,,,-99.99,,2013-07-14 22:11:00,
2013-07-14 18:22:00,66.0,66.0,30.27,SSE,154,0.0,0.0,100,0.00,,,-99.99,,2013-07-14 22:22:00,
2013-07-14 18:32:00,67.0,67.0,30.26,SSE,154,0.0,0.0,100,0.00,,,-99.99,,2013-07-14 22:32:00,
2013-07-14 18:42:00,67.0,67.0,30.26,SSE,154,0.0,0.0,100,0.00,,,-99.99,,2013-07-14 22:42:00,
2013-07-14 18:53:00,67.0,67.0,30.26,SSE,154,0.0,0.0,100,0.00,,,-99.99,,2013-07-14 22:53:00,
2013-07-14 19:01:00,67.0,67.0,30.25,SSE,157,0.0,0.0,100,0.00,,,0.40,,2013-07-14 23:01:00,
2013-07-14 19:11:00,67.0,67.0,30.25,SSE,157,0.0,0.0,100,0.00,,,0.40,,2013-07-14 23:11:00,
2013-07-14 19:22:00,67.0,67.0,30.25,SSE,157,0.0,0.0,100,0.00,,,0.40,,2013-07-14 23:22:00,
2013-07-14 19:32:00,67.0,67.0,30.26,SSE,157,0.0,0.0,100,0.00,,,0.40,,2013-07-14 23:32:00,
2013-07-14 19:42:00,67.0,67.0,30.26,SSE,157,0.0,0.0,100,0.00,,,0.40,,2013-07-14 23:42:00,
2013-07-14 19:53:00,67.0,67.0,30.26,SSE,157,0.0,0.0,100,0.00,,,0.40,,2013-07-14 23:53:00,
2013-07-14 20:02:00,67.0,67.0,30.29,East,100,0.0,0.0,100,0.01,,,0.41,,2013-07-15 00:02:00,
2013-07-14 20:11:00,67.0,67.0,30.29,East,100,0.0,0.0,100,0.01,,,0.41,,2013-07-15 00:11:00,
2013-07-14 20:22:00,67.0,67.0,30.29,East,100,0.0,0.0,100,0.01,,,0.41,,2013-07-15 00:22:00,
2013-07-14 20:32:00,66.0,66.0,30.29,East,100,0.0,0.0,100,0.01,,,0.41,,2013-07-15 00:32:00,
2013-07-14 20:43:00,66.0,66.0,30.29,East,100,0.0,0.0,100,0.01,,,0.41,,2013-07-15 00:43:00,
2013-07-14 20:53:00,66.0,66.0,30.29,East,100,0.0,0.0,100,0.01,,,0.41,,2013-07-15 00:53:00,
2013-07-14 21:01:00,65.0,65.0,30.28,ESE,103,0.0,0.0,100,0.00,,,0.41,,2013-07-15 01:01:00,
2013-07-14 21:11:00,65.0,65.0,30.28,ESE,103,0.0,0.0,100,0.00,,,0.41,,2013-07-15 01:11:00,
2013-07-14 21:22:00,65.0,65.0,30.28,ESE,103,0.0,0.0,100,0.00,,,0.41,,2013-07-15 01:22:00,
2013-07-14 21:32:00,64.0,64.0,30.29,ESE,103,0.0,0.0,100,0.00,,,0.41,,2013-07-15 01:32:00,
2013-07-14 21:43:00,64.0,64.0,30.29,ESE,103,0.0,0.0,100,0.00,,,0.41,,2013-07-15 01:43:00,
2013-07-14 21:53:00,64.0,64.0,30.29,ESE,103,0.0,0.0,100,0.00,,,0.41,,2013-07-15 01:53:00,
2013-07-14 22:02:00,65.0,65.0,30.29,ESE,103,0.0,0.0,100,0.00,,,0.41,,2013-07-15 02:02:00,
2013-07-14 22:11:00,65.0,65.0,30.29,ESE,103,0.0,0.0,100,0.00,,,0.41,,2013-07-15 02:11:00,
2013-07-14 22:22:00,65.0,65.0,30.29,ESE,103,0.0,0.0,100,0.00,,,0.41,,2013-07-15 02:22:00,
2013-07-14 22:32:00,65.0,65.0,30.29,ESE,103,0.0,0.0,100,0.01,,,0.42,,2013-07-15 02:32:00,
2013-07-14 22:42:00,65.0,65.0,30.29,ESE,103,0.0,0.0,100,0.01,,,0.42,,2013-07-15 02:42:00,
2013-07-14 22:53:00,65.0,65.0,30.29,ESE,103,0.0,0.0,100,0.01,,,0.42,,2013-07-15 02:53:00,
2013-07-14 23:02:00,64.0,64.0,30.31,ESE,103,0.0,0.0,100,0.01,,,0.42,,2013-07-15 03:02:00,
2013-07-14 23:11:00,64.0,64.0,30.31,ESE,103,0.0,0.0,100,0.01,,,0.42,,2013-07-15 03:11:00,
2013-07-14 23:22:00,64.0,64.0,30.31,ESE,103,0.0,0.0,100,0.01,,,0.42,,2013-07-15 03:22:00,
2013-07-14 23:32:00,64.0,64.0,30.31,ESE,103,0.0,0.0,100,0.01,,,0.42,,2013-07-15 03:32:00,